Powrót do katalogu

STARLINK-4278

AktywnyŁącznośćVLEO
NORAD 53182·PAYLOAD·🇺🇸 United States

Wystrzelony Jul 17, 2022 z Cape Canaveral Space Force Station

Loading…

Następne Przeloty (najbliższe 24 godziny)

TLE

ŚwieżeSource: CelesTrak SupGP

Epoka: Sep 14, 2026, 21:47 UTC

1 53182C 22083BC  26257.90812500 -.00028440  00000+0 -81351-3 0  2578
2 53182  53.1594 355.5559 0001178  81.4448  39.5593 15.35419835    10

Śledź STARLINK-4278 w czasie rzeczywistym z AllMySat

Download on the App Store